Simultaneous Nadir Overpasses (SNOs) Predictions

Prediction of SNOs between LANDSAT-8 and METOP-A Satellite Orbit:

Table of predicted SNOs for the next 14.0 days since TLE Epoch: 7/9/2016
Index Date (LANDSAT-8) Time (LANDSAT-8) Lat,Lon (LANDSAT-8) SZA (LANDSAT-8 ) Date (METOP-A) Time (METOP-A) Lat,Lon (METOP-A) SZA (METOP-A ) Distance(km) Time Diff (sec)
1 07/09/2016 18:07:52 -81.17, 128.79 118.97 07/09/2016 18:06:53 -81.17, 128.88 118.98 1.59 59
2 07/09/2016 18:57:18 81.18, -63.45 61.06 07/09/2016 18:57:33 81.18, -63.58 61.06 2.20 15
3 07/12/2016 13:42:07 -81.18,-164.61 118.57 07/12/2016 13:41:13 -81.18,-164.45 118.58 2.64 54
4 07/12/2016 14:31:33 81.19, 3.13 61.45 07/12/2016 14:31:53 81.18, 3.04 61.45 1.51 20
5 07/15/2016 09:16:24 -81.16, -98.41 118.19 07/15/2016 09:15:36 -81.16, -98.56 118.22 2.62 48
6 07/15/2016 10:05:49 81.19, 69.67 61.89 07/15/2016 10:06:14 81.19, 69.64 61.90 0.47 25
7 07/18/2016 04:50:40 -81.17, -31.89 117.71 07/18/2016 04:49:57 -81.17, -31.94 117.73 0.85 43
8 07/18/2016 05:40:05 81.19, 136.17 62.37 07/18/2016 05:40:35 81.19, 136.23 62.39 1.02 30
9 07/21/2016 00:24:55 -81.17, 34.59 117.18 07/21/2016 00:24:17 -81.18, 34.67 117.19 1.32 38




NCC Satellite Simultaneous Nadir Overpasses (SNOs) Prediction Service
